x

Tanner Bank - 121nm West Of San Diego, Ca (46047) Wave Buoy

12:50am - Thu 24th Jul 2014 All times are PDT. -7 hours from GMT.

  • Sig Wave height 7.2ft
  • Swell Direction
  • Peak Period 8s
  • Average Period 5s
  • Wind
    20mph, 25mph gusts
  • Sea Temp 65°f
  • Air Temp 65°f
  • Sea Pressure 1014mb
  • Tanner Bank - 121nm West Of San Diego, Ca
  • Tanner Bank - 121nm West Of San Diego, Ca

More Historic Weather Station data

Upgrade to MSW Pro to gain access to the past 30 days of data for over 8000 Wavebouys and Weather Stations around the globe.

Join Pro

Comparision Forecast

View Surf forecast
   
Thu 07/24 12:50am 7ft 8s 5s 20 25 mph 1014mb 65f 65f
Wed 07/23 11:50pm 7ft 7s 6s 22 29 mph 1014.2mb 65f 66f
10:50pm 6.5ft 7s 5s 18 22 mph 1014.5mb 65f 66f
9:50pm  -   -   -  20 27 mph 1014.4mb 65f 66f
8:50pm 7ft 7s 5s 20 27 mph 1013.9mb 65f 66f
7:50pm 7ft 7s 5s 22 27 mph 1013.6mb 65f 66f
6:50pm 6.5ft 7s 5s 25 29 mph 1013.7mb 66f 67f
5:50pm 6.5ft 7s 5s 22 27 mph 1014.3mb 66f 67f
4:50pm  -   -   -  22 29 mph 1014.8mb 66f 67f
3:50pm 6ft 7s 5s 22 29 mph 1015.1mb 66f 67f
2:50pm 6ft 7s 5s 22 25 mph 1016mb 66f 66f
1:50pm 6ft 7s 5s 22 25 mph 1016.6mb 66f 66f
12:50pm 5.5ft 6s 5s 20 25 mph 1017.2mb 66f 66f
11:50am 6ft 7s 5s 20 22 mph 1017.7mb 65f 66f
10:50am 6ft 6s 5s 20 25 mph 1017.7mb 65f 66f
9:50am 5.5ft 6s 5s 20 25 mph 1017.5mb 65f 66f
8:50am 6ft 6s 5s 20 25 mph 1017.5mb 65f 66f
7:50am 5.5ft 6s 5s 20 25 mph 1017.3mb 65f 66f
6:50am 6ft 6s 5s 20 25 mph 1016.9mb 65f 66f
5:50am 5ft 7s 5s 18 20 mph 1017.3mb 65f 65f
4:50am 5ft 6s 5s 18 20 mph 1017.2mb 65f 66f
3:50am 5ft 6s 5s 16 20 mph 1017.3mb 65f 66f
2:50am 5ft 6s 5s 18 22 mph 1017.3mb 65f 66f
1:50am 5ft 6s 5s 20 25 mph 1017.3mb 65f 66f
12:50am  -   -   -  20 25 mph 1017.2mb 65f 67f
Tue 07/22 11:50pm 4.5ft 10s 5s 20 22 mph 1017.7mb 66f 67f
10:50pm 4.5ft 11s 5s 20 25 mph 1017.7mb 66f 67f
9:50pm 4ft 11s 5s 20 22 mph 1017.5mb 66f 67f
8:50pm 4ft 11s 5s 18 22 mph 1017.2mb 67f 67f
7:50pm 4ft 11s 5s 18 22 mph 1017.2mb 67f 67f
6:50pm 3.5ft 10s 5s 18 20 mph 1016.9mb 67f 67f
5:50pm 3.5ft 11s 5s 18 20 mph 1017.4mb 67f 67f
4:50pm 4ft 11s 5s 16 18 mph 1018.1mb 67f 67f
3:50pm 3.5ft 11s 5s 16 18 mph 1018.5mb 67f 67f
2:50pm 4ft 10s 5s 18 20 mph 1018.7mb 66f 67f
1:50pm 3.5ft 10s 5s 13 16 mph 1019mb 66f 66f
12:50pm 3.5ft 11s 5s 13 16 mph 1019.2mb 66f 66f
11:50am 3.5ft 11s 6s 13 16 mph 1019.5mb 66f 66f
10:50am 3.5ft 12s 5s 11 13 mph 1019.4mb 66f 66f
9:50am 3.5ft 12s 5s 11 13 mph 1019.2mb 66f 66f
8:50am 3.5ft 11s 5s 13 16 mph 1018.9mb 66f 66f
7:50am 3.5ft 12s 5s 13 16 mph 1018.3mb 66f 66f
6:50am 3.5ft 11s 5s 11 13 mph 1017.8mb 66f 65f
5:50am 3.5ft 11s 5s 13 16 mph 1017.5mb 66f 65f
4:50am 3ft 11s 5s 18 22 mph 1017.2mb 66f 66f
3:50am 3ft 11s 5s 13 16 mph 1017.5mb 67f 66f
2:50am 2.5ft 11s 5s 16 18 mph 1017.6mb 67f 66f
1:50am 2.5ft 11s 5s 11 13 mph 1017.5mb 67f 66f
12:50am 2.5ft 12s 5s 13 16 mph 1017.6mb 67f 66f
Mon 07/21 11:50pm 3ft 11s 5s 13 16 mph 1017.4mb 67f 66f
10:50pm 2.5ft 12s 5s 11 16 mph 1017.4mb 68f 66f
9:50pm 2.5ft 11s 5s 13 16 mph 1017mb 68f 66f
8:50pm 3ft 14s 5s 13 16 mph 1016.4mb 68f 66f
7:50pm 2.5ft 12s 5s 13 16 mph 1016.6mb 68f 67f
6:50pm 2.5ft 12s 6s 13 16 mph 1016.6mb 69f 67f
5:50pm 2.5ft 12s 7s 13 16 mph 1016.9mb 69f 67f
4:50pm 2.5ft 14s 7s 11 13 mph 1017.5mb 69f 67f
3:50pm 2.5ft 13s 7s 9 11 mph 1018mb 69f 67f
2:50pm 2.5ft 13s 8s 9
mph
1018.2mb 69f 67f
1:50pm 2.5ft 12s 8s 7
mph
1018.5mb 69f 68f
12:50pm 2.5ft 13s 8s 7 9 mph 1018.7mb 68f 68f
11:50am 2.5ft 12s 8s 4 7 mph 1018.7mb 68f 67f
10:50am 2.5ft 8s 8s 2
mph
1018.7mb 67f 67f
9:50am 3ft 13s 8s  -  2 mph 1018.7mb 67f 66f
8:50am 3ft 9s 8s 2 4 mph 1018.1mb 66f 66f
7:50am 2.5ft 12s 8s 2
mph
1017.7mb 66f 66f
6:50am 3.5ft 9s 9s 2
mph
1017.4mb 66f 66f
5:50am 2.5ft 9s 8s 4 7 mph 1017mb 66f 66f
4:50am 3ft 9s 8s 4
mph
1016.3mb 66f 66f
3:50am 3ft 13s 9s 2 4 mph 1016.1mb 66f 66f
2:50am 3ft 8s 8s 4
mph
1016.1mb 67f 66f
1:50am 3ft 9s 8s 2 4 mph 1016.3mb 67f 66f
12:50am 3ft 12s 9s 4
mph
1016.6mb 67f 67f
Sun 07/20 11:50pm 3ft 9s 8s 4
mph
1016.8mb 67f 67f
10:50pm 3.5ft 13s 8s 4 7 mph 1016.4mb 67f 67f
9:50pm 3.5ft 9s 8s 7 9 mph 1016.2mb 67f 67f
8:50pm 3.5ft 9s 8s 4
mph
1015.8mb 67f 67f
7:50pm 3.5ft 9s 8s 4 7 mph 1015.5mb 67f 68f
6:50pm 3.5ft 13s 8s 7 9 mph 1015.2mb 68f 67f
5:50pm 3.5ft 9s 8s 7
mph
1015.1mb 68f 68f
4:50pm 3ft 12s 8s 7
mph
1015.4mb 68f 68f
3:50pm 3.5ft 13s 8s 2 4 mph 1015.9mb 67f 68f
2:50pm 3.5ft 8s 8s 2
mph
1016.4mb 67f 67f
1:50pm 3.5ft 13s 9s 2 4 mph 1017mb 68f 67f
12:50pm 3.5ft 8s 8s 4 7 mph 1017.2mb 68f 67f
11:50am 3.5ft 9s 9s 4 7 mph 1017.2mb 68f 67f
10:50am 3.5ft 8s 8s 4 7 mph 1016.9mb 67f 67f
9:50am 3.5ft 13s 9s  -  mph 1016.7mb 66f 69f